When you browse on this site, cookies collect data to enhance your experience and personalize the content and advertising you see.
Visit our Privacy Policy to learn more. By continuing to use the site, you agree to this use of cookies and data.
  • En España
  • Lista de países
  • Para 7 días
  • Temperatura del agua
  • El tiempo en el mapa
  • Informadores
  • user-avatar
    Iniciar sesión

    Tiempo cada hora Viedma

    Hoy, 23 Octubre, Miércoles

    Tiempo Temperatura Precipitaciones Viento Presión Humedad
    00:00 +10°C° 0 mm 4 mps 759 mmHg 83%
    01:00 +10°C° 0 mm 4 mps 759 mmHg 85%
    02:00 +8°C° 0 mm 4 mps 758 mmHg 86%
    03:00 +10°C° 0 mm 4 mps 758 mmHg 85%
    04:00 +9°C° 0 mm 5 mps 759 mmHg 84%
    05:00 +9°C° 0 mm 5 mps 759 mmHg 83%
    06:00 +9°C° 0 mm 5 mps 759 mmHg 80%
    07:00 +10°C° 0 mm 6 mps 759 mmHg 77%
    08:00 +11°C° 0 mm 7 mps 759 mmHg 73%
    09:00 +11°C° 0 mm 7 mps 759 mmHg 69%
    10:00 +12°C° 0 mm 7 mps 759 mmHg 65%
    11:00 +14°C° 0 mm 7 mps 759 mmHg 61%
    12:00 +15°C° 0 mm 7 mps 759 mmHg 57%
    13:00 +15°C° 0 mm 7 mps 759 mmHg 54%
    14:00 +16°C° 0 mm 7 mps 758 mmHg 51%
    15:00 +15°C° 0 mm 6 mps 758 mmHg 54%
    16:00 +14°C° 0 mm 6 mps 758 mmHg 56%
    17:00 +14°C° 0 mm 5 mps 757 mmHg 59%
    18:00 +12°C° 0 mm 4 mps 757 mmHg 67%
    19:00 +11°C° 0 mm 3 mps 758 mmHg 75%
    20:00 +9°C° 0 mm 3 mps 758 mmHg 84%
    21:00 +9°C° 0 mm 2 mps 757 mmHg 86%
    22:00 +8°C° 0 mm 2 mps 757 mmHg 88%
    23:00 +9°C° 0 mm 1 mps 757 mmHg 90%

    Mañana, 24 Octubre, Jueves

    Tiempo Temperatura Precipitaciones Viento Presión Humedad
    00:00 +9°C° 0 mm 1 mps 757 mmHg 90%
    01:00 +8°C° 0 mm 1 mps 756 mmHg 90%
    02:00 +8°C° 0 mm 1 mps 756 mmHg 90%
    03:00 +8°C° 0 mm 1 mps 756 mmHg 91%
    04:00 +7°C° 0 mm 1 mps 756 mmHg 91%
    05:00 +6°C° 0 mm 0 mps 756 mmHg 92%
    06:00 +9°C° 0 mm 1 mps 756 mmHg 81%
    07:00 +12°C° 0 mm 1 mps 756 mmHg 70%
    08:00 +14°C° 0 mm 2 mps 756 mmHg 59%
    09:00 +16°C° 0 mm 2 mps 756 mmHg 50%
    10:00 +19°C° 0 mm 3 mps 755 mmHg 41%
    11:00 +22°C° 0 mm 4 mps 755 mmHg 33%
    12:00 +23°C° 0 mm 4 mps 754 mmHg 29%
    13:00 +26°C° 0 mm 4 mps 754 mmHg 26%
    14:00 +28°C° 0 mm 4 mps 753 mmHg 22%
    15:00 +26°C° 0 mm 5 mps 753 mmHg 28%
    16:00 +23°C° 0 mm 6 mps 752 mmHg 34%
    17:00 +22°C° 0 mm 6 mps 752 mmHg 40%
    18:00 +19°C° 0 mm 6 mps 752 mmHg 49%
    19:00 +16°C° 0 mm 6 mps 753 mmHg 58%
    20:00 +13°C° 0 mm 5 mps 753 mmHg 67%
    21:00 +13°C° 0 mm 5 mps 753 mmHg 68%
    22:00 +13°C° 0 mm 5 mps 753 mmHg 68%
    23:00 +13°C° 0 mm 4 mps 753 mmHg 69%

    Pasado mañana, 25 Octubre, Viernes

    Tiempo Temperatura Precipitaciones Viento Presión Humedad
    00:00 +13°C° 0 mm 4 mps 753 mmHg 72%
    01:00 +12°C° 0 mm 3 mps 753 mmHg 75%
    02:00 +13°C° 0 mm 2 mps 752 mmHg 78%
    03:00 +13°C° 0 mm 2 mps 753 mmHg 75%
    04:00 +13°C° 0 mm 3 mps 753 mmHg 73%
    05:00 +13°C° 0 mm 3 mps 754 mmHg 71%
    06:00 +14°C° 0 mm 3 mps 754 mmHg 66%
    07:00 +15°C° 0 mm 4 mps 755 mmHg 62%
    08:00 +17°C° 0 mm 5 mps 755 mmHg 58%
    09:00 +19°C° 0 mm 6 mps 755 mmHg 54%
    10:00 +18°C° 0 mm 7 mps 756 mmHg 49%
    11:00 +20°C° 0 mm 8 mps 756 mmHg 45%
    12:00 +21°C° 0 mm 7 mps 756 mmHg 42%
    13:00 +21°C° 0 mm 6 mps 756 mmHg 39%
    14:00 +21°C° 0 mm 5 mps 756 mmHg 36%
    15:00 +21°C° 0 mm 4 mps 756 mmHg 36%
    16:00 +21°C° 0 mm 3 mps 755 mmHg 36%
    17:00 +21°C° 0 mm 2 mps 755 mmHg 36%
    18:00 +19°C° 0 mm 2 mps 755 mmHg 44%
    19:00 +17°C° 0 mm 3 mps 755 mmHg 52%
    20:00 +14°C° 0 mm 4 mps 755 mmHg 60%
    21:00 +14°C° 0 mm 4 mps 755 mmHg 62%
    22:00 +13°C° 0 mm 4 mps 755 mmHg 64%
    23:00 +13°C° 0 mm 3 mps 755 mmHg 66%

    26 Octubre, Sábado

    Tiempo Temperatura Precipitaciones Viento Presión Humedad
    00:00 +12°C° 0 mm 3 mps 754 mmHg 67%
    01:00 +12°C° 0 mm 3 mps 754 mmHg 67%
    02:00 +12°C° 0 mm 3 mps 753 mmHg 68%
    03:00 +12°C° 0 mm 3 mps 753 mmHg 67%
    04:00 +12°C° 0 mm 3 mps 752 mmHg 67%
    05:00 +12°C° 0 mm 4 mps 752 mmHg 67%
    06:00 +14°C° 0 mm 4 mps 752 mmHg 60%
    07:00 +16°C° 0 mm 5 mps 752 mmHg 54%
    08:00 +17°C° 0 mm 6 mps 751 mmHg 47%
    09:00 +20°C° 0 mm 6 mps 751 mmHg 45%
    10:00 +21°C° 0 mm 6 mps 750 mmHg 42%
    11:00 +22°C° 0 mm 6 mps 749 mmHg 40%
    12:00 +22°C° 0.1 mm 7 mps 749 mmHg 43%
    13:00 +22°C° 0.1 mm 9 mps 748 mmHg 47%
    14:00 +22°C° 0.1 mm 10 mps 747 mmHg 50%
    15:00 +21°C° 0.3 mm 10 mps 746 mmHg 60%
    16:00 +18°C° 0.3 mm 10 mps 746 mmHg 70%
    17:00 +17°C° 0.3 mm 9 mps 745 mmHg 80%
    18:00 +16°C° 0.1 mm 8 mps 745 mmHg 82%
    19:00 +16°C° 0.1 mm 6 mps 745 mmHg 85%
    20:00 +16°C° 0.1 mm 5 mps 745 mmHg 87%
    21:00 +15°C° 0 mm 6 mps 746 mmHg 72%
    22:00 +15°C° 0 mm 6 mps 746 mmHg 57%
    23:00 +14°C° 0 mm 7 mps 747 mmHg 41%

    27 Octubre, Domingo

    Tiempo Temperatura Precipitaciones Viento Presión Humedad
    00:00 +12°C° 0 mm 8 mps 747 mmHg 42%
    01:00 +12°C° 0 mm 8 mps 747 mmHg 43%
    02:00 +11°C° 0 mm 9 mps 748 mmHg 43%
    03:00 +10°C° 0 mm 8 mps 749 mmHg 43%
    04:00 +10°C° 0 mm 7 mps 750 mmHg 43%
    05:00 +9°C° 0 mm 6 mps 750 mmHg 43%
    06:00 +10°C° 0 mm 7 mps 751 mmHg 37%
    07:00 +11°C° 0 mm 9 mps 751 mmHg 31%
    08:00 +12°C° 0 mm 10 mps 752 mmHg 25%
    09:00 +13°C° 0 mm 10 mps 752 mmHg 23%
    10:00 +14°C° 0 mm 10 mps 752 mmHg 21%
    11:00 +14°C° 0 mm 10 mps 752 mmHg 20%
    12:00 +16°C° 0 mm 9 mps 752 mmHg 18%
    13:00 +16°C° 0 mm 9 mps 752 mmHg 17%
    14:00 +17°C° 0 mm 8 mps 752 mmHg 15%
    15:00 +17°C° 0 mm 8 mps 752 mmHg 16%
    16:00 +17°C° 0 mm 7 mps 751 mmHg 16%
    17:00 +17°C° 0 mm 6 mps 751 mmHg 16%
    18:00 +15°C° 0 mm 4 mps 752 mmHg 18%
    19:00 +13°C° 0 mm 3 mps 752 mmHg 20%
    20:00 +12°C° 0 mm 2 mps 752 mmHg 23%
    21:00 +12°C° 0 mm 2 mps 753 mmHg 26%
    22:00 +10°C° 0 mm 3 mps 753 mmHg 29%
    23:00 +10°C° 0 mm 4 mps 753 mmHg 32%

    28 Octubre, Lunes

    Tiempo Temperatura Precipitaciones Viento Presión Humedad
    00:00 +10°C° 0 mm 4 mps 753 mmHg 36%
    01:00 +9°C° 0 mm 3 mps 753 mmHg 40%
    02:00 +9°C° 0 mm 3 mps 753 mmHg 44%
    03:00 +8°C° 0 mm 3 mps 752 mmHg 45%
    04:00 +8°C° 0 mm 3 mps 752 mmHg 47%
    05:00 +8°C° 0 mm 3 mps 752 mmHg 48%
    06:00 +11°C° 0 mm 4 mps 752 mmHg 40%
    07:00 +13°C° 0 mm 5 mps 752 mmHg 32%
    08:00 +16°C° 0 mm 6 mps 752 mmHg 24%
    09:00 +18°C° 0 mm 7 mps 752 mmHg 21%
    10:00 +20°C° 0 mm 8 mps 751 mmHg 18%
    11:00 +22°C° 0 mm 8 mps 751 mmHg 15%
    12:00 +23°C° 0 mm 9 mps 750 mmHg 15%
    13:00 +23°C° 0 mm 9 mps 750 mmHg 15%
    14:00 +24°C° 0 mm 9 mps 749 mmHg 15%
    15:00 +24°C° 0 mm 9 mps 749 mmHg 16%
    16:00 +24°C° 0 mm 8 mps 748 mmHg 16%
    17:00 +24°C° 0 mm 8 mps 748 mmHg 16%
    18:00 +22°C° 0 mm 8 mps 748 mmHg 23%
    19:00 +20°C° 0 mm 8 mps 748 mmHg 30%
    20:00 +17°C° 0 mm 8 mps 749 mmHg 37%
    21:00 +16°C° 0 mm 7 mps 749 mmHg 45%
    22:00 +15°C° 0 mm 7 mps 749 mmHg 53%
    23:00 +14°C° 0 mm 6 mps 750 mmHg 60%

    29 Octubre, Martes

    Tiempo Temperatura Precipitaciones Viento Presión Humedad
    00:00 +13°C° 0 mm 6 mps 750 mmHg 59%
    01:00 +13°C° 0 mm 6 mps 750 mmHg 57%
    02:00 +13°C° 0 mm 6 mps 750 mmHg 55%
    03:00 +13°C° 0 mm 6 mps 750 mmHg 50%
    04:00 +11°C° 0 mm 6 mps 750 mmHg 45%
    05:00 +11°C° 0 mm 6 mps 750 mmHg 41%
    06:00 +12°C° 0 mm 7 mps 750 mmHg 38%
    07:00 +15°C° 0 mm 8 mps 751 mmHg 36%
    08:00 +16°C° 0 mm 9 mps 751 mmHg 33%
    09:00 +17°C° 0 mm 8 mps 752 mmHg 30%
    10:00 +18°C° 0 mm 8 mps 752 mmHg 27%
    11:00 +18°C° 0 mm 7 mps 752 mmHg 23%
    12:00 +20°C° 0 mm 7 mps 752 mmHg 21%
    13:00 +20°C° 0 mm 8 mps 752 mmHg 20%
    14:00 +20°C° 0 mm 8 mps 752 mmHg 18%
    15:00 +20°C° 0 mm 7 mps 751 mmHg 17%
    16:00 +21°C° 0 mm 6 mps 751 mmHg 16%
    17:00 +21°C° 0 mm 5 mps 751 mmHg 15%
    18:00 +17°C° 0 mm 5 mps 751 mmHg 23%
    19:00 +14°C° 0 mm 5 mps 751 mmHg 32%
    20:00 +12°C° 0 mm 4 mps 751 mmHg 40%
    21:00 +11°C° 0 mm 4 mps 752 mmHg 45%
    22:00 +11°C° 0 mm 3 mps 752 mmHg 50%
    23:00 +10°C° 0 mm 2 mps 752 mmHg 54%
    Mostrar más